Tracking 31027 objects as of 19-Jul-2025
HD Live streaming from Space Station
objects crossing your sky now

BPA 1/SL-24 R/B

Track BPA 1/SL-24 R/B now!
10-day predictions


NORAD ID: 36600
Int'l Code: 2010-028C
Perigee: 720.3 km
Apogee: 1,273.3 km
Inclination: 98.3 °
Period: 104.9 minutes
Semi major axis: 7367 km
RCS: 6.6389 m2 (large)
Launch date: June 15, 2010
Source: Commonwealth of Independent States (former USSR) (CIS)
Launch site: Orenburg, Russia (OREN)

Note: This is a ROCKET BODY
Your satellite tracking list
OBJECT A
Track 1 satellite(s)




NASA's NSSDC Master Catalog

Two Line Element Set (TLE):
1 36600U 10028C   25199.83386896 -.00000009  00000-0  15442-4 0  9993
2 36600  98.3017  92.8971 0375253  64.0338 338.7684 13.72760493756098
Source of the keplerian elements: AFSPC